Location: Northcutt
(34.7304°N, 84.4305°W)
Time: 23:37:28
(UTC+00:00)

Hubble Space Telescope - Visible Passes

Search period start: 08 August 2022 00:00
Search period end: 18 August 2022 00:00
Orbit: 532 x 535 km, 28.5° (Epoch: 08 August)

Date Brightness Start Highest point End Pass type
(mag) Time Alt. Az. Time Alt. Az. Time Alt. Az.
08 Aug 1.6 02:06:22 10° WSW 02:10:01 32° S 02:10:01 32° S visible
09 Aug 1.6 01:54:14 10° WSW 01:57:57 33° S 01:58:43 30° SSE visible
10 Aug 1.6 01:42:08 10° WSW 01:45:52 34° S 01:47:20 26° SE visible
11 Aug 1.6 01:30:02 10° WSW 01:33:47 34° S 01:35:54 20° SE visible
12 Aug 1.7 01:17:58 10° WSW 01:21:42 33° S 01:24:25 16° SE visible
12 Aug 3.4 02:59:12 10° WSW 02:59:39 12° WSW 02:59:39 12° WSW visible
13 Aug 1.8 01:05:54 10° WSW 01:09:36 32° S 01:12:54 12° SE visible
13 Aug 3.2 02:47:21 10° WSW 02:48:08 13° SW 02:48:08 13° SW visible
14 Aug 1.9 00:53:52 10° WSW 00:57:30 30° S 01:01:08 10° SE visible
14 Aug 3.2 02:35:35 10° WSW 02:36:38 13° SW 02:36:38 13° SW visible
15 Aug 3.2 02:23:58 10° SW 02:25:08 13° SW 02:25:08 13° SW visible
16 Aug 3.2 02:12:48 10° SW 02:13:39 11° SSW 02:13:39 11° SSW visible
